カタログに戻る

SL-16 DEB

運用中LEO
NORAD 22419·DEBRIS·🇷🇺 Russia

打ち上げ Dec 25, 1992 から Baikonur Cosmodrome

Loading…

次のパス (今後24時間)

TLE

最新Source: Space-Track

元期: Sep 14, 2026, 15:03 UTC

1 22419U 92093DL  26257.62720480  .00000108  00000-0  10526-3 0  9998
2 22419  71.1818 345.7458 0103675  58.5489 302.5709 13.96134955713578

AllMySatでSL-16 DEBをリアルタイム追跡

Download on the App Store